Regional Weather Roundup
Issued by NWS Midland/Odessa, TX

Home | Current Version | Previous Version | Text Only | Print | Product List | Glossary On
Versions: 1 2 3 4 5 6 7 8 9 10 11 12 13 14 15 16 17 18 19 20 21 22 23 24 25 26 27 28 29 30 31 32 33 34 35 36 37 38 39 40 41 42 43 44 45 46 47 48 49 50
000
ASUS44 KMAF 222110
RWRMAF
MIDLAND AREA WEATHER ROUNDUP
NATIONAL WEATHER SERVICE MIDLAND TX
400 PM CDT THU JUN 22 2017

...IN SOUTHWEST TEXAS AND SOUTHEAST NEW MEXICO...

CITY           SKY/WX    TMP DP  RH WIND       PRES   REMARKS
ALPINE         SUNNY     97  44  16 E12       29.95S
ANDREWS        FAIR      99  52  20 S7        29.79F
ARTESIA        SUNNY    102  52  18 VRB6G13   29.75F HX 100
BIG SPRING     SUNNY     98  52  21 S7        29.77F
CARLSBAD       PTSUNNY  104  51  17 SE12G17   29.73F HX 101
DRYDEN           N/A    101  57  23 SE8       29.72F HX 100
FORT STOCKTON  SUNNY    103  50  17 NE9       29.76F HX 100
GUAD PASS      SUNNY    101  44  14 W15G21    29.96F
HOBBS          SUNNY     99  48  18 SE12      29.81F
MARFA          PTSUNNY   91  48  22 E16       29.94R
MIDLAND AIRPK  SUNNY    100  50  18 E5        29.77F
MIDLAND INTL   SUNNY    100  52  19 S7        29.76F
ODESSA         SUNNY    100  48  17 S8        29.78F
PECOS          SUNNY    104  50  16 NE5       29.71F HX 101
PRESIDIO       FAIR     107  46  12 NW7       29.75F HX 102
SEMINOLE       SUNNY     99  48  17 S6        29.80F
SNYDER         SUNNY     96  57  26 CALM      29.75F
WINK           SUNNY    104  47  14 NE7       29.73F HX 100
$$
...OTHER STATIONS IN TEXAS...

CITY           SKY/WX    TMP DP  RH WIND       PRES   REMARKS
ABILENE        SUNNY     94  53  25 CALM      29.73F
AMARILLO       SUNNY     98  54  22 S12G24    29.77F
AUSTIN         MOSUNNY   96  68  39 VRB3      29.66F HX 101
BROWNSVILLE    SUNNY     96  75  50 SE24G35   29.69F HX 108
CORPUS CHRISTI MOSUNNY   95  78  58 SE18      29.67F HX 111
DALLAS FTW     CLOUDY    89  72  56 VRB6      29.65F
DEL RIO        SUNNY     99  62  29 SE7       29.67F HX 100
EL PASO        FAIR     106  39  10 W14       29.80F HX 100
HOUSTON INT    PTSUNNY   87  74  64 W7        29.67F
LUBBOCK        SUNNY     96  54  24 S6        29.78F
SAN ANGELO     SUNNY    102  54  20 NE8       29.72F HX 100
SAN ANTONIO    PTSUNNY   97  54  23 W8        29.68F
WACO           CLOUDY    91  71  51 NW7       29.66F
WICHITA FALLS  NOT AVBL
$$
...OTHER LOCATIONS IN NEW MEXICO...

CITY           SKY/WX    TMP DP  RH WIND       PRES   REMARKS
ALAMOGORDO     SUNNY    104  39  11 NW8G16    29.83F
ALBUQUERQUE    PTSUNNY   98  34  10 N9        29.93F
CANNON AFB     SUNNY    101  45  14 SE8       29.80F
CLOVIS         SUNNY    100  53  20 S17       29.80F
HOLLOMAN AFB   SUNNY    103  35   9 W10       29.83F
ROSWELL        SUNNY    106  49  14 SE13      29.74F HX 103
RUIDOSO        SUNNY     91  32  12 NW12      30.09F
SANTA FE       CLOUDY    93  35  13 NE14      30.03F
TRUTH OR CONSE FAIR     102  30   8 VRB6G18   29.87F
TUCUMCARI      SUNNY    107  38   9 VRB7      29.73F HX 101
$$




USA.gov is the U.S. government's official web portal to all federal, state and local government web resources and services.